Hourly Weather Roundup
Issued by NWS Central Illinois

Home | Current Version | Previous Version | Text Only | Print | Product List | Glossary On
Versions: 1 2 3 4 5 6 7 8 9 10 11 12 13 14 15 16 17 18 19 20 21 22 23 24 25 26 27 28 29 30 31 32 33 34 35 36 37 38 39 40 41 42 43 44 45 46 47 48 49 50
000
NZUS43 KILX 311610
HWRILX

AREA WEATHER ROUNDUP
NATIONAL WEATHER SERVICE, LINCOLN IL
1100 AM CDT MON AUG 31 2015


CITY           SKY/WX    TMP DP  RH WIND       PRES   REMARKS
BLOOMINGTON    SUNNY     81  74  79 VRB5      30.10S HX  86
CHAMPAIGN      CLOUDY    77  70  79 S9G18     30.11S
DANVILLE       MOSUNNY   81  72  74 CALM      30.09S HX  85
DECATUR        PTSUNNY   81  71  71 S6        30.10R HX  85
EFFINGHAM      PTSUNNY   71  69  92 E3        30.14S THUNDER FOG
FLORA          SUNNY     77  68  74 W3        30.14R
GALESBURG      SUNNY     80  71  74 SE6       30.06F HX  84
JACKSONVILLE   SUNNY     85  72  66 SW3       30.07R HX  91
LACON          SUNNY     80  71  73 SE3       30.06S HX  84
LAWRENCEVILLE  PTSUNNY   81  69  67 SW9       30.14R HX  84
LITCHFIELD     MOSUNNY   77  69  76 S7        30.10S
$$


CITY           SKY/WX    TMP DP  RH WIND       PRES   REMARKS
LINCOLN        SUNNY     83  72  67 CALM      30.07S HX  88
MACOMB         SUNNY     82  72  71 S5        30.08S HX  87
MATTOON        CLOUDY    71  68  90 S7        30.13R
MT CARMEL AP   PTSUNNY   81  68  65 SW6       30.13S HX  83
OLNEY-NOBLE AP CLOUDY    79  70  73 W6        30.14R THUNDER HX  81
PARIS          MOSUNNY   80  71  74 SW8       30.13S HX  83
PEORIA         SUNNY     84  71  65 SE6       30.07S HX  89
PONTIAC        SUNNY     83  73  72 CALM      30.09S HX  89
RANTOUL        MOSUNNY   81  74  77 S7        30.10F HX  86
ROBINSON       MOSUNNY   78  69  75 SW8       30.15R
SPRINGFIELD    SUNNY     84  73  69 S6        30.07F HX  90
TAYLORVILLE    MOSUNNY   81  72  74 S7        30.09S HX  84
$$

...REGIONAL REPORTS...


CITY           SKY/WX    TMP DP  RH WIND       PRES   REMARKS
CHICAGO O`HARE SUNNY     78  67  68 CALM      30.08S HX  80
KANKAKEE       SUNNY     79  72  79 CALM      30.10S HX  82
MOLINE         SUNNY     81  71  71 SE3       30.05R HX  85
MOUNT STERLING SUNNY     82  72  72 S5        30.05F HX  87
MOUNT VERNON   MOSUNNY   81  70  69 SW8       30.13R HX  84
PITTSFIELD     SUNNY     85  71  62 SE3       30.07S HX  90
QUINCY         SUNNY     84  71  65 SW6       30.05S HX  89
ROCKFORD       SUNNY     78  68  71 S5        30.09S HX  80
$$


CITY           SKY/WX    TMP DP  RH WIND       PRES   REMARKS
BURLINGTON     SUNNY     80  73  79 S8        30.05R HX  84
CEDAR RAPIDS   SUNNY     77  73  87 S9        30.03S
DES MOINES     MOSUNNY   80  71  74 S8        30.00R HX  84
KIRKSVILLE     SUNNY     84  71  65 SE9       30.04S HX  89
OTTUMWA        SUNNY     81  74  79 S8        30.00F HX  86
ST LOUIS       MOSUNNY   84  69  60 S5        30.08S HX  88
$$


CITY           SKY/WX    TMP DP  RH WIND       PRES   REMARKS
TERRE HAUTE    MOSUNNY   80  69  69 VRB5      30.13S HX  83
EVANSVILLE     SUNNY     80  68  66 SW6       30.14S HX  83
INDIANAPOLIS   NOT AVBL
LAFAYETTE      PTSUNNY   82  69  64 SW6       30.10S HX  85
MADISON        PTSUNNY   73  66  78 S8        30.06S
MILWAUKEE      CLOUDY    73  65  75 W7        30.08S
$$





USA.gov is the U.S. government's official web portal to all federal, state and local government web resources and services.